KE9LZ-9 Weather Reports


Display with metric or nautical units.
time (UTC)temp
F
wind
direction
speed
MPH
gust
MPH
rain 1hr
in
rain 24hr
in
rain mn
in
humidity
%
barometer
mb
20260902065004 64 348 1.0 2.0 0.00 0.00 0.00 96 1013.8
20260902064004 64 334 1.0 2.0 0.00 0.00 0.00 95 1013.9
20260902063004 64 325 1.0 2.0 0.00 0.00 0.00 94 1013.8
20260902061004 64 324 1.0 2.0 0.00 0.00 0.00 94 1013.8
20260902055004 64 317 1.0 2.0 0.00 0.00 0.00 95 1013.8
20260902054004 64 308 1.0 2.0 0.00 0.00 0.00 94 1013.7
20260902052003 65 309 0.0 1.0 0.00 0.00 0.00 93 1013.5
20260902050007 66 346 0.0 1.0 0.00 0.00 0.00 91 1013.6
20260902044004 67 26 0.0 1.0 0.00 0.00 0.00 89 1013.4
20260902043003 68 7 0.0 1.0 0.00 0.00 0.00 90 1013.5
20260902042003 68 22 0.0 1.0 0.00 0.00 0.00 89 1013.5
20260902041003 68 11 0.0 1.0 0.00 0.00 0.00 90 1013.5
20260902040004 69 18 0.0 1.0 0.00 0.00 0.00 89 1013.3
20260902034003 69 5 0.0 1.0 0.00 0.00 0.00 89 1013.2
20260902033004 69 325 0.0 1.0 0.00 0.00 0.00 88 1013.2
20260902032004 68 326 0.0 1.0 0.00 0.00 0.00 90 1013.0
20260902030004 69 9 0.0 1.0 0.00 0.00 0.00 91 1012.9
20260902025004 69 0 0.0 1.0 0.00 0.00 0.00 90 1012.9
20260902024004 70 355 0.0 1.0 0.00 0.00 0.00 88 1012.9
20260902021004 72 316 0.0 2.0 0.00 0.00 0.00 82 1012.8
20260902015004 73 309 0.0 1.0 0.00 0.00 0.00 81 1012.8
20260902014004 74 316 0.0 1.0 0.00 0.00 0.00 81 1012.6
20260902013004 74 317 0.0 3.0 0.00 0.00 0.00 79 1012.5
20260902012004 74 51 0.0 1.0 0.00 0.00 0.00 79 1012.3
20260902005003 75 33 0.0 1.0 0.00 0.00 0.00 77 1012.0
20260902003004 78 342 0.0 0.0 0.00 0.00 0.00 72 1012.0
20260902002004 79 7 0.0 2.0 0.00 0.00 0.00 69 1012.1
20260902001003 80 333 0.0 1.0 0.00 0.00 0.00 67 1012.0
20260902000004 81 308 0.0 1.0 0.00 0.00 0.00 64 1012.0
20260901235004 83 316 1.0 3.0 0.00 0.00 0.00 61 1011.8
20260901233003 84 325 1.0 5.0 0.00 0.00 0.00 59 1012.0
20260901232004 85 300 2.0 5.0 0.00 0.00 0.00 57 1011.9
20260901231004 85 305 1.0 6.0 0.00 0.00 0.00 58 1012.0
20260901230004 85 341 1.0 5.0 0.00 0.00 0.00 60 1012.0
20260901225004 86 283 1.0 5.0 0.00 0.00 0.00 59 1012.0
20260901224004 85 294 1.0 3.0 0.00 0.00 0.00 60 1012.1
20260901223004 86 281 1.0 2.0 0.00 0.00 0.00 59 1012.0
20260901222004 88 287 1.0 6.0 0.00 0.00 0.00 54 1011.9
20260901221004 89 272 2.0 8.0 0.00 0.00 0.00 53 1011.9
20260901220004 89 289 2.0 6.0 0.00 0.00 0.00 52 1011.9
20260901215004 89 296 2.0 6.0 0.00 0.00 0.00 52 1012.0
20260901214004 87 276 2.0 6.0 0.00 0.00 0.00 54 1012.1
20260901213003 88 278 3.0 7.0 0.00 0.00 0.00 50 1011.8
20260901212004 90 314 4.0 8.0 0.00 0.00 0.00 48 1012.0
20260901210003 90 281 4.0 10.0 0.00 0.00 0.00 45 1012.2
20260901205004 90 297 2.0 9.0 0.00 0.00 0.00 47 1012.1
20260901202004 91 257 4.0 8.0 0.00 0.00 0.00 47 1012.3
20260901201004 91 266 3.0 8.0 0.00 0.00 0.00 44 1012.4
20260901200003 91 342 2.0 6.0 0.00 0.00 0.00 48 1012.4
20260901195004 92 262 1.0 6.0 0.00 0.00 0.00 48 1012.5
20260901194004 90 287 2.0 7.0 0.00 0.00 0.00 51 1012.5
20260901192004 89 228 3.0 8.0 0.00 0.00 0.00 49 1012.7
20260901191004 89 270 3.0 7.0 0.00 0.00 0.00 49 1013.0
20260901190003 89 270 3.0 9.0 0.00 0.00 0.00 47 1012.9
20260901185004 89 293 3.0 6.0 0.00 0.00 0.00 47 1012.9
20260901184004 89 268 2.0 7.0 0.00 0.00 0.00 48 1013.1
20260901183004 88 270 4.0 8.0 0.00 0.00 0.00 50 1013.2
20260901182004 89 288 3.0 5.0 0.00 0.00 0.00 51 1013.2
20260901181003 87 273 3.0 7.0 0.00 0.00 0.00 53 1013.4
20260901180004 87 297 2.0 13.0 0.00 0.00 0.00 51 1013.4
20260901175004 87 297 2.0 7.0 0.00 0.00 0.00 54 1013.6
20260901174004 87 282 2.0 8.0 0.00 0.00 0.00 55 1013.8
20260901173004 86 283 2.0 6.0 0.00 0.00 0.00 59 1013.9
20260901172004 86 301 1.0 5.0 0.00 0.00 0.00 59 1014.0
20260901171004 86 75 1.0 6.0 0.00 0.00 0.00 61 1014.3
20260901170004 85 271 3.0 6.0 0.00 0.00 0.00 60 1014.1
20260901165004 85 282 2.0 5.0 0.00 0.00 0.00 63 1014.2
20260901164004 85 128 2.0 5.0 0.00 0.00 0.00 64 1014.2
20260901162003 84 269 3.0 8.0 0.00 0.00 0.00 71 1014.7
20260901161004 84 271 1.0 7.0 0.00 0.00 0.00 73 1014.5
20260901160003 83 268 2.0 7.0 0.00 0.00 0.00 74 1014.5
20260901155003 84 245 2.0 3.0 0.00 0.00 0.00 73 1014.7
20260901154004 83 196 1.0 3.0 0.00 0.00 0.00 75 1014.6
20260901153004 82 121 2.0 5.0 0.00 0.00 0.00 80 1014.5
20260901152004 81 306 2.0 3.0 0.00 0.00 0.00 80 1014.5
20260901151004 82 269 3.0 3.0 0.00 0.00 0.00 81 1014.6
20260901150003 81 305 0.0 2.0 0.00 0.00 0.00 84 1014.6
20260901145003 82 96 0.0 2.0 0.00 0.00 0.00 82 1014.5
20260901144003 81 301 1.0 2.0 0.00 0.00 0.00 87 1014.6
20260901143004 82 293 0.0 2.0 0.00 0.00 0.00 86 1014.7
20260901142004 80 311 1.0 2.0 0.00 0.00 0.00 89 1014.6
20260901140004 74 335 1.0 2.0 0.00 0.00 0.00 96 1014.7
20260901135004 74 353 0.0 1.0 0.00 0.00 0.00 97 1014.7
20260901133003 71 317 0.0 2.0 0.00 0.00 0.00 99 1014.8
20260901132004 69 314 2.0 3.0 0.00 0.00 0.00 99 1014.9
20260901131004 69 352 0.0 2.0 0.00 0.00 0.00 99 1014.8
20260901130004 70 350 0.0 1.0 0.00 0.00 0.00 99 1014.9
20260901125004 69 8 0.0 1.0 0.00 0.00 0.00 99 1014.7
20260901123004 64 327 1.0 2.0 0.00 0.00 0.00 99 1014.5
20260901122004 63 334 1.0 2.0 0.00 0.00 0.00 99 1014.5
20260901120003 62 308 1.0 2.0 0.00 0.00 0.00 99 1014.3
20260901115003 62 336 1.0 2.0 0.00 0.00 0.00 99 1014.1
20260901114004 62 347 0.0 1.0 0.00 0.00 0.00 99 1014.0
20260901113004 62 14 0.0 1.0 0.00 0.00 0.00 99 1013.7
20260901112003 62 354 0.0 2.0 0.00 0.00 0.00 99 1013.9
20260901110003 63 358 1.0 2.0 0.00 0.00 0.00 99 1013.6
20260901105004 63 340 1.0 2.0 0.00 0.00 0.00 99 1013.6
20260901104003 63 324 1.0 1.0 0.00 0.00 0.00 99 1013.5
20260901103004 63 6 1.0 1.0 0.00 0.00 0.00 99 1013.4
20260901101004 64 41 1.0 1.0 0.00 0.00 0.00 99 1013.4
20260901100004 64 35 1.0 1.0 0.00 0.00 0.00 99 1013.5
20260901095004 65 23 1.0 2.0 0.00 0.00 0.00 99 1013.4
20260901094004 65 16 0.0 1.0 0.00 0.00 0.00 99 1013.6
20260901093004 65 29 0.0 1.0 0.00 0.06 0.00 99 1013.4
20260901091004 65 37 0.0 0.0 0.00 0.06 0.00 99 1013.4
20260901090004 65 55 0.0 1.0 0.00 0.06 0.00 99 1013.4
20260901085004 66 349 0.0 1.0 0.00 0.06 0.00 99 1013.4
20260901084004 65 348 0.0 1.0 0.00 0.11 0.00 99 1013.2
20260901083003 65 29 0.0 1.0 0.00 0.19 0.00 99 1013.3
20260901082004 65 33 0.0 1.0 0.00 0.19 0.00 99 1013.3
20260901080003 66 336 0.0 1.0 0.00 0.19 0.00 99 1013.3
20260901075003 66 44 1.0 2.0 0.00 0.19 0.00 99 1013.3
20260901074004 66 18 1.0 1.0 0.00 0.19 0.00 99 1013.3
20260901073004 66 19 0.0 1.0 0.00 0.19 0.00 99 1013.2
20260901071004 66 2 0.0 1.0 0.00 0.19 0.00 99 1013.0
20260901070003 67 16 0.0 1.0 0.00 0.19 0.00 99 1012.8